| time (UTC) | temp F | wind direction | speed MPH | gust MPH | rain 1hr in | rain 24hr in | rain mn in | humidity % | barometer mb |
| 20260906113549 | 71 | 122 | 2.0 | 2.0 | 0.00 | 0.00 | 0.00 | 89 | 1009.9 |
| 20260906113056 | 71 | 122 | 1.0 | 2.0 | 0.00 | 0.00 | 0.00 | 89 | 1010.0 |
| 20260906112522 | 71 | 122 | 1.0 | 2.0 | 0.00 | 0.00 | 0.00 | 89 | 1009.9 |
| 20260906112022 | 71 | 122 | 1.0 | 2.0 | 0.00 | 0.00 | 0.00 | 89 | 1009.8 |
| 20260906111523 | 71 | 122 | 1.0 | 3.0 | 0.00 | 0.00 | 0.00 | 90 | 1009.7 |
| 20260906111021 | 71 | 122 | 2.0 | 3.0 | 0.00 | 0.00 | 0.00 | 90 | 1009.8 |
| 20260906110521 | 71 | 122 | 2.0 | 4.0 | 0.00 | 0.00 | 0.00 | 90 | 1009.8 |
| 20260906110021 | 71 | 123 | 2.0 | 5.0 | 0.00 | 0.00 | 0.00 | 90 | 1009.7 |
| 20260906105521 | 71 | 82 | 2.0 | 5.0 | 0.00 | 0.00 | 0.00 | 90 | 1009.7 |
| 20260906105024 | 71 | 87 | 3.0 | 5.0 | 0.00 | 0.00 | 0.00 | 90 | 1009.5 |
| 20260906104527 | 71 | 82 | 4.0 | 5.0 | 0.00 | 0.00 | 0.00 | 90 | 1009.4 |
| 20260906104020 | 71 | 74 | 3.0 | 5.0 | 0.00 | 0.00 | 0.00 | 90 | 1009.3 |
| 20260906103519 | 71 | 67 | 3.0 | 4.0 | 0.00 | 0.00 | 0.00 | 89 | 1009.4 |
| 20260906103019 | 71 | 57 | 3.0 | 4.0 | 0.00 | 0.00 | 0.00 | 89 | 1009.3 |
| 20260906102523 | 71 | 36 | 3.0 | 4.0 | 0.00 | 0.00 | 0.00 | 89 | 1009.2 |
| 20260906102018 | 71 | 42 | 3.0 | 4.0 | 0.00 | 0.00 | 0.00 | 89 | 1009.3 |
| 20260906101518 | 71 | 42 | 3.0 | 4.0 | 0.00 | 0.00 | 0.00 | 89 | 1009.2 |
| 20260906101017 | 72 | 55 | 4.0 | 4.0 | 0.00 | 0.00 | 0.00 | 88 | 1009.1 |
| 20260906100517 | 72 | 49 | 3.0 | 4.0 | 0.00 | 0.00 | 0.00 | 88 | 1009.2 |
| 20260906100018 | 72 | 49 | 3.0 | 4.0 | 0.00 | 0.00 | 0.00 | 88 | 1009.3 |
| 20260906095514 | 72 | 41 | 2.0 | 4.0 | 0.00 | 0.00 | 0.00 | 87 | 1009.3 |
| 20260906095014 | 72 | 45 | 2.0 | 3.0 | 0.00 | 0.00 | 0.00 | 87 | 1009.3 |
| 20260906094517 | 73 | 64 | 2.0 | 3.0 | 0.00 | 0.00 | 0.00 | 87 | 1009.3 |
| 20260906094013 | 73 | 121 | 2.0 | 2.0 | 0.00 | 0.00 | 0.00 | 87 | 1009.2 |
| 20260906093514 | 73 | 121 | 1.0 | 2.0 | 0.00 | 0.00 | 0.00 | 87 | 1009.2 |
| 20260906093012 | 73 | 121 | 1.0 | 2.0 | 0.00 | 0.00 | 0.00 | 87 | 1009.3 |
| 20260906092512 | 73 | 126 | 1.0 | 1.0 | 0.00 | 0.00 | 0.00 | 87 | 1009.3 |
| 20260906092013 | 73 | 126 | 0.0 | 2.0 | 0.00 | 0.00 | 0.00 | 86 | 1009.3 |
| 20260906091524 | 73 | 126 | 1.0 | 3.0 | 0.00 | 0.00 | 0.00 | 86 | 1009.3 |
| 20260906091009 | 73 | 126 | 0.0 | 3.0 | 0.00 | 0.00 | 0.00 | 86 | 1009.3 |
| 20260906090509 | 73 | 153 | 2.0 | 3.0 | 0.00 | 0.00 | 0.00 | 85 | 1009.5 |
| 20260906090009 | 73 | 153 | 2.0 | 3.0 | 0.00 | 0.00 | 0.00 | 85 | 1009.5 |
| 20260906085510 | 74 | 169 | 2.0 | 5.0 | 0.00 | 0.00 | 0.00 | 85 | 1009.3 |
| 20260906085007 | 74 | 169 | 2.0 | 5.0 | 0.00 | 0.00 | 0.00 | 84 | 1009.3 |
| 20260906084506 | 74 | 173 | 2.0 | 4.0 | 0.00 | 0.00 | 0.00 | 84 | 1009.3 |
| 20260906084009 | 74 | 199 | 2.0 | 5.0 | 0.00 | 0.00 | 0.00 | 83 | 1009.3 |
| 20260906083505 | 74 | 173 | 2.0 | 5.0 | 0.00 | 0.00 | 0.00 | 83 | 1009.4 |
| 20260906083011 | 74 | 171 | 1.0 | 3.0 | 0.00 | 0.00 | 0.00 | 83 | 1009.6 |
| 20260906082505 | 75 | 195 | 1.0 | 4.0 | 0.00 | 0.00 | 0.00 | 82 | 1009.6 |
| 20260906082003 | 75 | 180 | 2.0 | 5.0 | 0.00 | 0.00 | 0.00 | 82 | 1009.6 |
| 20260906081506 | 75 | 188 | 2.0 | 5.0 | 0.00 | 0.00 | 0.00 | 82 | 1009.7 |
| 20260906081002 | 75 | 180 | 3.0 | 5.0 | 0.00 | 0.00 | 0.00 | 81 | 1009.8 |
| 20260906080600 | 75 | 193 | 2.0 | 5.0 | 0.00 | 0.00 | 0.00 | 81 | 1009.9 |
| 20260906080107 | 76 | 205 | 2.0 | 5.0 | 0.00 | 0.00 | 0.00 | 81 | 1010.0 |
| 20260906075558 | 76 | 196 | 3.0 | 7.0 | 0.00 | 0.00 | 0.00 | 80 | 1010.1 |
| 20260906075058 | 76 | 202 | 3.0 | 11.0 | 0.00 | 0.00 | 0.00 | 80 | 1010.1 |
| 20260906074611 | 76 | 209 | 6.0 | 12.0 | 0.00 | 0.00 | 0.00 | 80 | 1010.0 |
| 20260906074056 | 76 | 196 | 7.0 | 12.0 | 0.00 | 0.00 | 0.00 | 80 | 1010.0 |
| 20260906073557 | 76 | 229 | 6.0 | 12.0 | 0.00 | 0.00 | 0.00 | 80 | 1010.1 |
| 20260906073059 | 76 | 188 | 7.0 | 12.0 | 0.00 | 0.00 | 0.00 | 80 | 1010.2 |
| 20260906072554 | 76 | 173 | 7.0 | 12.0 | 0.00 | 0.00 | 0.00 | 80 | 1010.2 |
| 20260906072056 | 76 | 184 | 6.0 | 12.0 | 0.00 | 0.00 | 0.00 | 79 | 1010.3 |
| 20260906071553 | 76 | 167 | 7.0 | 11.0 | 0.00 | 0.00 | 0.00 | 79 | 1010.3 |
| 20260906071052 | 76 | 207 | 5.0 | 11.0 | 0.00 | 0.00 | 0.00 | 79 | 1010.3 |
| 20260906070550 | 77 | 229 | 7.0 | 11.0 | 0.00 | 0.00 | 0.00 | 79 | 1010.3 |
| 20260906070149 | 77 | 190 | 6.0 | 11.0 | 0.00 | 0.00 | 0.00 | 79 | 1010.4 |
| 20260906065548 | 77 | 171 | 4.0 | 10.0 | 0.00 | 0.00 | 0.00 | 79 | 1010.4 |
| 20260906065048 | 77 | 172 | 5.0 | 10.0 | 0.00 | 0.00 | 0.00 | 78 | 1010.5 |
| 20260906064546 | 77 | 193 | 6.0 | 10.0 | 0.00 | 0.00 | 0.00 | 78 | 1010.6 |
| 20260906064045 | 77 | 191 | 4.0 | 10.0 | 0.00 | 0.00 | 0.00 | 78 | 1010.7 |
| 20260906063544 | 78 | 198 | 6.0 | 12.0 | 0.00 | 0.00 | 0.00 | 78 | 1010.7 |
| 20260906063045 | 78 | 191 | 7.0 | 12.0 | 0.00 | 0.00 | 0.00 | 78 | 1010.7 |
| 20260906062544 | 78 | 180 | 5.0 | 12.0 | 0.00 | 0.00 | 0.00 | 77 | 1010.8 |
| 20260906062046 | 78 | 163 | 8.0 | 14.0 | 0.00 | 0.00 | 0.00 | 77 | 1011.0 |
| 20260906061541 | 78 | 170 | 8.0 | 14.0 | 0.00 | 0.00 | 0.00 | 77 | 1010.9 |
| 20260906061041 | 78 | 205 | 6.0 | 15.0 | 0.00 | 0.00 | 0.00 | 77 | 1010.8 |
| 20260906060540 | 78 | 176 | 7.0 | 15.0 | 0.00 | 0.00 | 0.00 | 77 | 1010.9 |
| 20260906060039 | 78 | 194 | 7.0 | 11.0 | 0.00 | 0.00 | 0.00 | 77 | 1010.9 |
| 20260906055538 | 78 | 180 | 5.0 | 10.0 | 0.00 | 0.00 | 0.00 | 77 | 1010.9 |
| 20260906055037 | 78 | 202 | 4.0 | 10.0 | 0.00 | 0.00 | 0.00 | 76 | 1010.9 |
| 20260906054537 | 78 | 191 | 5.0 | 10.0 | 0.00 | 0.00 | 0.00 | 76 | 1010.8 |
| 20260906054035 | 78 | 190 | 6.0 | 10.0 | 0.00 | 0.00 | 0.00 | 76 | 1010.8 |
| 20260906053534 | 79 | 190 | 5.0 | 10.0 | 0.00 | 0.00 | 0.00 | 76 | 1010.7 |
| 20260906053036 | 79 | 196 | 6.0 | 10.0 | 0.00 | 0.00 | 0.00 | 75 | 1010.6 |
| 20260906052532 | 79 | 173 | 6.0 | 10.0 | 0.00 | 0.00 | 0.00 | 75 | 1010.8 |
| 20260906052032 | 79 | 182 | 5.0 | 10.0 | 0.00 | 0.00 | 0.00 | 75 | 1010.9 |
| 20260906051531 | 79 | 188 | 5.0 | 11.0 | 0.00 | 0.00 | 0.00 | 74 | 1010.9 |
| 20260906051030 | 79 | 194 | 4.0 | 11.0 | 0.00 | 0.00 | 0.00 | 74 | 1010.9 |
| 20260906050529 | 80 | 173 | 5.0 | 14.0 | 0.00 | 0.00 | 0.00 | 73 | 1010.8 |
| 20260906050033 | 80 | 194 | 7.0 | 14.0 | 0.00 | 0.00 | 0.00 | 73 | 1010.7 |
| 20260906045527 | 80 | 186 | 5.0 | 12.0 | 0.00 | 0.00 | 0.00 | 72 | 1010.8 |
| 20260906045031 | 80 | 180 | 7.0 | 14.0 | 0.00 | 0.00 | 0.00 | 72 | 1010.6 |
| 20260906044535 | 80 | 190 | 6.0 | 14.0 | 0.00 | 0.00 | 0.00 | 71 | 1010.6 |
| 20260906044031 | 80 | 176 | 7.0 | 16.0 | 0.00 | 0.00 | 0.00 | 71 | 1010.6 |
| 20260906043530 | 81 | 155 | 9.0 | 16.0 | 0.00 | 0.00 | 0.00 | 71 | 1010.8 |
| 20260906043027 | 81 | 210 | 8.0 | 15.0 | 0.00 | 0.00 | 0.00 | 70 | 1010.9 |
| 20260906042526 | 81 | 169 | 8.0 | 16.0 | 0.00 | 0.00 | 0.00 | 69 | 1010.9 |
| 20260906042027 | 81 | 184 | 9.0 | 15.0 | 0.00 | 0.00 | 0.00 | 68 | 1010.8 |
| 20260906041531 | 81 | 184 | 9.0 | 16.0 | 0.00 | 0.00 | 0.00 | 67 | 1010.8 |
| 20260906041026 | 81 | 173 | 11.0 | 18.0 | 0.00 | 0.00 | 0.00 | 66 | 1010.8 |
| 20260906040526 | 82 | 147 | 10.0 | 17.0 | 0.00 | 0.00 | 0.00 | 65 | 1010.6 |
| 20260906040029 | 81 | 178 | 11.0 | 17.0 | 0.00 | 0.00 | 0.00 | 65 | 1010.6 |
| 20260906035525 | 81 | 145 | 6.0 | 13.0 | 0.00 | 0.00 | 0.00 | 65 | 1010.5 |
| 20260906035026 | 81 | 161 | 5.0 | 8.0 | 0.00 | 0.00 | 0.00 | 65 | 1010.5 |
| 20260906034528 | 81 | 161 | 2.0 | 4.0 | 0.00 | 0.00 | 0.00 | 65 | 1010.5 |
| 20260906034026 | 81 | 160 | 2.0 | 6.0 | 0.00 | 0.00 | 0.00 | 65 | 1010.4 |
| 20260906033525 | 81 | 162 | 3.0 | 5.0 | 0.00 | 0.00 | 0.00 | 65 | 1010.4 |
| 20260906033038 | 81 | 181 | 2.0 | 6.0 | 0.00 | 0.00 | 0.00 | 65 | 1010.3 |
| 20260906032525 | 81 | 155 | 1.0 | 4.0 | 0.00 | 0.00 | 0.00 | 65 | 1010.3 |
| 20260906032025 | 82 | 139 | 2.0 | 5.0 | 0.00 | 0.00 | 0.00 | 65 | 1010.2 |
| 20260906031528 | 82 | 157 | 3.0 | 8.0 | 0.00 | 0.00 | 0.00 | 65 | 1010.2 |
| 20260906031025 | 82 | 148 | 3.0 | 8.0 | 0.00 | 0.00 | 0.00 | 65 | 1010.2 |
| 20260906030525 | 82 | 142 | 4.0 | 8.0 | 0.00 | 0.00 | 0.00 | 65 | 1010.2 |
| 20260906030024 | 82 | 128 | 4.0 | 8.0 | 0.00 | 0.00 | 0.00 | 65 | 1010.1 |
| 20260906025524 | 82 | 149 | 4.0 | 8.0 | 0.00 | 0.00 | 0.00 | 65 | 1009.8 |
| 20260906025027 | 82 | 134 | 4.0 | 8.0 | 0.00 | 0.00 | 0.00 | 65 | 1009.8 |
| 20260906024526 | 82 | 128 | 5.0 | 8.0 | 0.00 | 0.00 | 0.00 | 65 | 1009.7 |
| 20260906024026 | 82 | 135 | 4.0 | 7.0 | 0.00 | 0.00 | 0.00 | 65 | 1009.7 |
| 20260906023524 | 82 | 132 | 4.0 | 7.0 | 0.00 | 0.00 | 0.00 | 65 | 1009.6 |
| 20260906023025 | 82 | 137 | 3.0 | 7.0 | 0.00 | 0.00 | 0.00 | 65 | 1009.6 |
| 20260906022528 | 82 | 130 | 3.0 | 7.0 | 0.00 | 0.00 | 0.00 | 64 | 1009.4 |
| 20260906022024 | 82 | 134 | 4.0 | 7.0 | 0.00 | 0.00 | 0.00 | 64 | 1009.4 |
| 20260906021522 | 82 | 139 | 3.0 | 7.0 | 0.00 | 0.00 | 0.00 | 64 | 1009.4 |
| 20260906021022 | 82 | 121 | 3.0 | 7.0 | 0.00 | 0.00 | 0.00 | 63 | 1009.1 |
| 20260906020522 | 83 | 129 | 3.0 | 8.0 | 0.00 | 0.00 | 0.00 | 63 | 1009.0 |
| 20260906020022 | 83 | 128 | 4.0 | 8.0 | 0.00 | 0.00 | 0.00 | 62 | 1009.0 |
| 20260906015523 | 83 | 111 | 2.0 | 8.0 | 0.00 | 0.00 | 0.00 | 61 | 1008.9 |
| 20260906015021 | 83 | 121 | 3.0 | 7.0 | 0.00 | 0.00 | 0.00 | 61 | 1008.8 |
| 20260906014522 | 83 | 117 | 4.0 | 7.0 | 0.00 | 0.00 | 0.00 | 60 | 1008.7 |
| 20260906014021 | 83 | 115 | 3.0 | 6.0 | 0.00 | 0.00 | 0.00 | 59 | 1008.8 |
| 20260906013521 | 84 | 118 | 2.0 | 6.0 | 0.00 | 0.00 | 0.00 | 59 | 1008.7 |
| 20260906013022 | 84 | 121 | 3.0 | 6.0 | 0.00 | 0.00 | 0.00 | 59 | 1008.6 |
| 20260906012524 | 84 | 122 | 2.0 | 4.0 | 0.00 | 0.00 | 0.00 | 58 | 1008.5 |
| 20260906012020 | 84 | 128 | 2.0 | 6.0 | 0.00 | 0.00 | 0.00 | 58 | 1008.5 |
| 20260906011528 | 85 | 127 | 2.0 | 6.0 | 0.00 | 0.00 | 0.00 | 57 | 1008.5 |
| 20260906011020 | 85 | 147 | 2.0 | 4.0 | 0.00 | 0.00 | 0.00 | 57 | 1008.4 |
| 20260906010521 | 85 | 146 | 2.0 | 6.0 | 0.00 | 0.00 | 0.00 | 56 | 1008.4 |
| 20260906010020 | 85 | 136 | 2.0 | 6.0 | 0.00 | 0.00 | 0.00 | 56 | 1008.4 |
| 20260906005519 | 86 | 145 | 2.0 | 7.0 | 0.00 | 0.00 | 0.00 | 56 | 1008.3 |
| 20260906005022 | 86 | 144 | 3.0 | 7.0 | 0.00 | 0.00 | 0.00 | 55 | 1008.3 |
| 20260906004520 | 86 | 131 | 2.0 | 4.0 | 0.00 | 0.00 | 0.00 | 55 | 1008.3 |
| 20260906004021 | 87 | 128 | 2.0 | 4.0 | 0.00 | 0.00 | 0.00 | 54 | 1008.5 |
| 20260906003519 | 87 | 148 | 2.0 | 9.0 | 0.00 | 0.00 | 0.00 | 54 | 1008.5 |
| 20260906003018 | 88 | 142 | 3.0 | 9.0 | 0.00 | 0.00 | 0.00 | 53 | 1008.4 |
| 20260906002517 | 88 | 123 | 2.0 | 8.0 | 0.00 | 0.00 | 0.00 | 53 | 1008.4 |
| 20260906002019 | 88 | 152 | 5.0 | 8.0 | 0.00 | 0.00 | 0.00 | 53 | 1008.5 |
| 20260906001517 | 88 | 144 | 2.0 | 7.0 | 0.00 | 0.00 | 0.00 | 54 | 1008.4 |
| 20260906001017 | 89 | 129 | 4.0 | 8.0 | 0.00 | 0.00 | 0.00 | 53 | 1008.3 |
| 20260906000516 | 88 | 168 | 2.0 | 8.0 | 0.00 | 0.00 | 0.00 | 55 | 1008.3 |
| 20260906000016 | 88 | 140 | 1.0 | 7.0 | 0.00 | 0.00 | 0.00 | 62 | 1008.2 |
| 20260905235516 | 88 | 346 | 0.0 | 2.0 | 0.00 | 0.00 | 0.00 | 64 | 1008.2 |
| 20260905235020 | 87 | 186 | 0.0 | 4.0 | 0.00 | 0.00 | 0.00 | 64 | 1008.2 |
| 20260905234516 | 87 | 319 | 2.0 | 6.0 | 0.00 | 0.00 | 0.00 | 66 | 1008.2 |
| 20260905234015 | 86 | 346 | 0.0 | 6.0 | 0.00 | 0.00 | 0.00 | 67 | 1008.2 |
| 20260905233515 | 86 | 250 | 3.0 | 6.0 | 0.00 | 0.00 | 0.00 | 67 | 1008.2 |
| 20260905233015 | 87 | 284 | 2.0 | 6.0 | 0.00 | 0.00 | 0.00 | 67 | 1008.2 |
| 20260905232515 | 87 | 304 | 0.0 | 10.0 | 0.00 | 0.00 | 0.00 | 66 | 1008.1 |
| 20260905232014 | 89 | 310 | 3.0 | 10.0 | 0.00 | 0.00 | 0.00 | 64 | 1008.1 |
| 20260905231514 | 91 | 9 | 4.0 | 8.0 | 0.00 | 0.00 | 0.00 | 61 | 1008.1 |
| 20260905231013 | 92 | 50 | 2.0 | 8.0 | 0.00 | 0.00 | 0.00 | 51 | 1008.1 |
| 20260905230513 | 91 | 48 | 4.0 | 14.0 | 0.00 | 0.00 | 0.00 | 52 | 1008.2 |
| 20260905230012 | 91 | 173 | 6.0 | 13.0 | 0.00 | 0.00 | 0.00 | 53 | 1008.2 |
| 20260905225512 | 90 | 128 | 5.0 | 12.0 | 0.00 | 0.00 | 0.00 | 58 | 1008.3 |
| 20260905225012 | 89 | 172 | 1.0 | 12.0 | 0.00 | 0.00 | 0.00 | 59 | 1008.3 |
| 20260905224512 | 89 | 228 | 1.0 | 12.0 | 0.00 | 0.00 | 0.00 | 61 | 1008.4 |
| 20260905224014 | 90 | 210 | 5.0 | 12.0 | 0.00 | 0.00 | 0.00 | 60 | 1008.3 |
| 20260905223511 | 88 | 129 | 8.0 | 12.0 | 0.00 | 0.00 | 0.00 | 59 | 1008.3 |
| 20260905223011 | 87 | 169 | 4.0 | 10.0 | 0.00 | 0.00 | 0.00 | 63 | 1008.3 |
| 20260905222511 | 86 | 129 | 2.0 | 7.0 | 0.00 | 0.00 | 0.00 | 66 | 1008.2 |
| 20260905222010 | 85 | 136 | 0.0 | 2.0 | 0.00 | 0.00 | 0.00 | 69 | 1008.1 |
| 20260905221516 | 84 | 340 | 0.0 | 5.0 | 0.00 | 0.00 | 0.00 | 70 | 1008.2 |
| 20260905221014 | 84 | 325 | 2.0 | 6.0 | 0.00 | 0.00 | 0.00 | 71 | 1008.2 |
| 20260905220510 | 85 | 350 | 4.0 | 6.0 | 0.00 | 0.00 | 0.00 | 70 | 1008.3 |
| 20260905220010 | 85 | 9 | 3.0 | 5.0 | 0.00 | 0.00 | 0.00 | 71 | 1008.3 |
| 20260905215509 | 85 | 355 | 3.0 | 5.0 | 0.00 | 0.00 | 0.00 | 68 | 1008.3 |
| 20260905215008 | 85 | 340 | 2.0 | 4.0 | 0.00 | 0.00 | 0.00 | 69 | 1008.2 |
| 20260905214509 | 85 | 325 | 2.0 | 4.0 | 0.00 | 0.00 | 0.00 | 69 | 1008.1 |
| 20260905214009 | 84 | 244 | 1.0 | 3.0 | 0.00 | 0.00 | 0.00 | 70 | 1008.2 |
| 20260905213509 | 84 | 360 | 1.0 | 5.0 | 0.00 | 0.00 | 0.00 | 70 | 1008.1 |
| 20260905213008 | 84 | 350 | 2.0 | 6.0 | 0.00 | 0.00 | 0.00 | 71 | 1008.2 |
| 20260905212507 | 83 | 9 | 3.0 | 6.0 | 0.00 | 0.00 | 0.00 | 75 | 1008.3 |
| 20260905212008 | 82 | 80 | 2.0 | 8.0 | 0.00 | 0.00 | 0.00 | 76 | 1008.4 |
| 20260905211505 | 81 | 320 | 3.0 | 17.0 | 0.00 | 0.00 | 0.00 | 76 | 1008.4 |
| 20260905211005 | 81 | 9 | 11.0 | 17.0 | 0.00 | 0.00 | 0.00 | 77 | 1008.5 |
| 20260905210503 | 82 | 355 | 9.0 | 12.0 | 0.00 | 0.00 | 0.00 | 75 | 1008.7 |
| 20260905210003 | 81 | 355 | 9.0 | 16.0 | 0.00 | 0.00 | 0.00 | 75 | 1008.8 |
| 20260905205503 | 82 | 334 | 9.0 | 16.0 | 0.00 | 0.00 | 0.00 | 73 | 1008.8 |
| 20260905205003 | 83 | 331 | 12.0 | 16.0 | 0.00 | 0.00 | 0.00 | 71 | 1008.9 |
| 20260905204504 | 85 | 334 | 10.0 | 14.0 | 0.00 | 0.00 | 0.00 | 68 | 1008.9 |
| 20260905204001 | 88 | 355 | 5.0 | 10.0 | 0.00 | 0.00 | 0.00 | 65 | 1009.0 |
| 20260905203502 | 89 | 321 | 2.0 | 8.0 | 0.00 | 0.00 | 0.00 | 60 | 1009.0 |
| 20260905203118 | 89 | 153 | 1.0 | 10.0 | 0.00 | 0.00 | 0.00 | 58 | 1009.0 |
| 20260905202601 | 89 | 176 | 4.0 | 10.0 | 0.00 | 0.00 | 0.00 | 59 | 1009.1 |
| 20260905202100 | 89 | 163 | 4.0 | 12.0 | 0.00 | 0.00 | 0.00 | 58 | 1009.0 |
| 20260905201601 | 90 | 199 | 5.0 | 16.0 | 0.00 | 0.00 | 0.00 | 59 | 1009.1 |
| 20260905201059 | 90 | 181 | 8.0 | 14.0 | 0.00 | 0.00 | 0.00 | 58 | 1009.2 |
| 20260905200600 | 91 | 184 | 8.0 | 12.0 | 0.00 | 0.00 | 0.00 | 58 | 1009.2 |
| 20260905195558 | 92 | 207 | 8.0 | 20.0 | 0.00 | 0.00 | 0.00 | 56 | 1009.2 |
| 20260905195058 | 93 | 223 | 8.0 | 14.0 | 0.00 | 0.00 | 0.00 | 55 | 1009.2 |
| 20260905194557 | 93 | 170 | 5.0 | 14.0 | 0.00 | 0.00 | 0.00 | 57 | 1009.4 |
| 20260905194057 | 92 | 170 | 8.0 | 13.0 | 0.00 | 0.00 | 0.00 | 59 | 1009.6 |
| 20260905193556 | 91 | 181 | 8.0 | 13.0 | 0.00 | 0.00 | 0.00 | 60 | 1009.8 |
| 20260905193054 | 91 | 161 | 5.0 | 11.0 | 0.00 | 0.00 | 0.00 | 59 | 1009.9 |
| 20260905192554 | 92 | 153 | 7.0 | 14.0 | 0.00 | 0.00 | 0.00 | 57 | 1010.0 |
| 20260905192053 | 92 | 156 | 8.0 | 14.0 | 0.00 | 0.00 | 0.00 | 57 | 1010.0 |
| 20260905191552 | 92 | 174 | 8.0 | 15.0 | 0.00 | 0.00 | 0.00 | 58 | 1010.1 |
| 20260905191052 | 91 | 142 | 9.0 | 15.0 | 0.00 | 0.00 | 0.00 | 58 | 1010.1 |
| 20260905190550 | 91 | 183 | 5.0 | 15.0 | 0.00 | 0.00 | 0.00 | 59 | 1010.0 |
| 20260905190049 | 90 | 118 | 8.0 | 15.0 | 0.00 | 0.00 | 0.00 | 60 | 1010.3 |
| 20260905185551 | 90 | 201 | 5.0 | 13.0 | 0.00 | 0.00 | 0.00 | 61 | 1010.4 |
| 20260905185047 | 90 | 176 | 8.0 | 15.0 | 0.00 | 0.00 | 0.00 | 60 | 1010.5 |
| 20260905184547 | 91 | 166 | 9.0 | 15.0 | 0.00 | 0.00 | 0.00 | 59 | 1010.5 |
| 20260905184046 | 92 | 165 | 9.0 | 16.0 | 0.00 | 0.00 | 0.00 | 60 | 1010.7 |
| 20260905183545 | 91 | 173 | 7.0 | 14.0 | 0.00 | 0.00 | 0.00 | 62 | 1010.7 |
| 20260905183043 | 90 | 176 | 7.0 | 14.0 | 0.00 | 0.00 | 0.00 | 63 | 1010.7 |
| 20260905182542 | 90 | 88 | 3.0 | 13.0 | 0.00 | 0.00 | 0.00 | 63 | 1010.9 |
| 20260905182042 | 90 | 165 | 7.0 | 12.0 | 0.00 | 0.00 | 0.00 | 63 | 1011.0 |
| 20260905181601 | 90 | 203 | 7.0 | 13.0 | 0.00 | 0.00 | 0.00 | 63 | 1011.1 |
| 20260905181042 | 90 | 185 | 8.0 | 13.0 | 0.00 | 0.00 | 0.00 | 63 | 1011.2 |
| 20260905180540 | 89 | 230 | 3.0 | 9.0 | 0.00 | 0.00 | 0.00 | 66 | 1011.2 |
| 20260905180038 | 88 | 132 | 3.0 | 8.0 | 0.00 | 0.00 | 0.00 | 66 | 1011.3 |
| 20260905175539 | 88 | 141 | 4.0 | 8.0 | 0.00 | 0.00 | 0.00 | 65 | 1011.4 |
| 20260905175041 | 88 | 221 | 2.0 | 7.0 | 0.00 | 0.00 | 0.00 | 66 | 1011.4 |
| 20260905174547 | 88 | 167 | 2.0 | 11.0 | 0.00 | 0.00 | 0.00 | 66 | 1011.5 |
| 20260905174038 | 88 | 188 | 5.0 | 12.0 | 0.00 | 0.00 | 0.00 | 66 | 1011.6 |
| 20260905173540 | 88 | 180 | 5.0 | 12.0 | 0.00 | 0.00 | 0.00 | 65 | 1011.6 |
| 20260905173037 | 88 | 217 | 7.0 | 12.0 | 0.00 | 0.00 | 0.00 | 65 | 1011.7 |
| 20260905172537 | 87 | 221 | 6.0 | 12.0 | 0.00 | 0.00 | 0.00 | 68 | 1011.7 |
| 20260905172038 | 87 | 226 | 5.0 | 12.0 | 0.00 | 0.00 | 0.00 | 68 | 1011.8 |
| 20260905171542 | 88 | 213 | 4.0 | 12.0 | 0.00 | 0.00 | 0.00 | 66 | 1011.8 |
| 20260905171036 | 88 | 147 | 7.0 | 12.0 | 0.00 | 0.00 | 0.00 | 68 | 1011.8 |
| 20260905170535 | 88 | 137 | 8.0 | 13.0 | 0.00 | 0.00 | 0.00 | 65 | 1011.8 |
| 20260905170036 | 88 | 152 | 6.0 | 14.0 | 0.00 | 0.00 | 0.00 | 67 | 1011.9 |
| 20260905165524 | 88 | 180 | 8.0 | 14.0 | 0.00 | 0.00 | 0.00 | 67 | 1011.9 |
| 20260905165020 | 88 | 116 | 6.0 | 11.0 | 0.00 | 0.00 | 0.00 | 67 | 1011.8 |
| 20260905164520 | 88 | 100 | 5.0 | 11.0 | 0.00 | 0.00 | 0.00 | 68 | 1011.9 |
| 20260905164019 | 87 | 150 | 7.0 | 11.0 | 0.00 | 0.00 | 0.00 | 68 | 1011.9 |
| 20260905163519 | 87 | 180 | 7.0 | 11.0 | 0.00 | 0.00 | 0.00 | 67 | 1011.9 |
| 20260905163017 | 87 | 141 | 4.0 | 11.0 | 0.00 | 0.00 | 0.00 | 68 | 1011.9 |
| 20260905162518 | 87 | 123 | 7.0 | 11.0 | 0.00 | 0.00 | 0.00 | 68 | 1011.9 |
| 20260905162015 | 86 | 150 | 6.0 | 11.0 | 0.00 | 0.00 | 0.00 | 69 | 1011.8 |
| 20260905161515 | 86 | 178 | 7.0 | 11.0 | 0.00 | 0.00 | 0.00 | 69 | 1011.9 |
| 20260905161015 | 86 | 149 | 6.0 | 11.0 | 0.00 | 0.00 | 0.00 | 69 | 1011.9 |
| 20260905160511 | 85 | 154 | 2.0 | 12.0 | 0.00 | 0.00 | 0.00 | 70 | 1011.9 |
| 20260905160013 | 85 | 194 | 6.0 | 11.0 | 0.00 | 0.00 | 0.00 | 71 | 1011.9 |
| 20260905155509 | 84 | 216 | 4.0 | 11.0 | 0.00 | 0.00 | 0.00 | 74 | 1012.0 |
| 20260905155011 | 83 | 182 | 5.0 | 10.0 | 0.00 | 0.00 | 0.00 | 75 | 1012.1 |
| 20260905154506 | 82 | 221 | 7.0 | 11.0 | 0.00 | 0.00 | 0.00 | 75 | 1012.0 |
| 20260905154005 | 81 | 209 | 6.0 | 11.0 | 0.00 | 0.00 | 0.00 | 77 | 1012.0 |
| 20260905153504 | 81 | 185 | 8.0 | 11.0 | 0.00 | 0.00 | 0.00 | 79 | 1012.0 |
| 20260905153017 | 81 | 204 | 6.0 | 11.0 | 0.00 | 0.00 | 0.00 | 79 | 1012.0 |
| 20260905152504 | 81 | 229 | 7.0 | 11.0 | 0.00 | 0.00 | 0.00 | 79 | 1012.0 |
| 20260905152004 | 81 | 195 | 7.0 | 11.0 | 0.00 | 0.00 | 0.00 | 79 | 1012.1 |
| 20260905151506 | 81 | 218 | 6.0 | 10.0 | 0.00 | 0.00 | 0.00 | 80 | 1012.1 |
| 20260905151001 | 80 | 164 | 5.0 | 8.0 | 0.00 | 0.00 | 0.00 | 82 | 1012.2 |
| 20260905150502 | 80 | 203 | 3.0 | 8.0 | 0.00 | 0.00 | 0.00 | 82 | 1012.1 |
| 20260905150100 | 80 | 186 | 6.0 | 11.0 | 0.00 | 0.00 | 0.00 | 83 | 1012.1 |
| 20260905145559 | 79 | 202 | 4.0 | 11.0 | 0.00 | 0.00 | 0.00 | 84 | 1012.0 |
| 20260905145059 | 79 | 183 | 5.0 | 11.0 | 0.00 | 0.00 | 0.00 | 84 | 1012.0 |
| 20260905144601 | 79 | 180 | 7.0 | 10.0 | 0.00 | 0.00 | 0.00 | 83 | 1012.0 |
| 20260905144059 | 79 | 179 | 5.0 | 9.0 | 0.00 | 0.00 | 0.00 | 84 | 1012.0 |
| 20260905143558 | 79 | 169 | 5.0 | 9.0 | 0.00 | 0.00 | 0.00 | 84 | 1012.0 |
| 20260905143057 | 79 | 202 | 6.0 | 10.0 | 0.00 | 0.00 | 0.00 | 84 | 1011.9 |
| 20260905142556 | 79 | 182 | 3.0 | 12.0 | 0.00 | 0.00 | 0.00 | 85 | 1011.9 |
| 20260905142059 | 79 | 182 | 7.0 | 12.0 | 0.00 | 0.00 | 0.00 | 85 | 1011.9 |
| 20260905141556 | 79 | 177 | 6.0 | 11.0 | 0.00 | 0.00 | 0.00 | 86 | 1011.9 |
| 20260905141055 | 78 | 150 | 6.0 | 12.0 | 0.00 | 0.00 | 0.00 | 86 | 1011.9 |
| 20260905140554 | 78 | 195 | 5.0 | 11.0 | 0.00 | 0.00 | 0.00 | 88 | 1011.8 |
| 20260905140054 | 77 | 188 | 6.0 | 10.0 | 0.00 | 0.00 | 0.00 | 89 | 1011.8 |
| 20260905135553 | 77 | 168 | 3.0 | 8.0 | 0.00 | 0.00 | 0.00 | 89 | 1011.9 |
| 20260905135053 | 77 | 190 | 4.0 | 8.0 | 0.00 | 0.00 | 0.00 | 90 | 1011.9 |
| 20260905134554 | 77 | 142 | 4.0 | 9.0 | 0.00 | 0.00 | 0.00 | 91 | 1011.8 |
| 20260905134052 | 76 | 173 | 5.0 | 9.0 | 0.00 | 0.00 | 0.00 | 92 | 1011.7 |
| 20260905133552 | 76 | 157 | 4.0 | 12.0 | 0.00 | 0.00 | 0.00 | 93 | 1011.7 |
| 20260905133055 | 75 | 179 | 4.0 | 10.0 | 0.00 | 0.00 | 0.00 | 94 | 1011.6 |
| 20260905132551 | 75 | 163 | 1.0 | 7.0 | 0.00 | 0.00 | 0.00 | 94 | 1011.6 |
| 20260905132056 | 75 | 128 | 3.0 | 7.0 | 0.00 | 0.00 | 0.00 | 95 | 1011.5 |
| 20260905131549 | 74 | 144 | 3.0 | 5.0 | 0.00 | 0.00 | 0.00 | 95 | 1011.4 |
| 20260905131049 | 74 | 142 | 0.0 | 5.0 | 0.00 | 0.00 | 0.00 | 95 | 1011.4 |
| 20260905130549 | 74 | 135 | 1.0 | 5.0 | 0.00 | 0.00 | 0.00 | 95 | 1011.3 |
| 20260905130048 | 74 | 165 | 2.0 | 4.0 | 0.00 | 0.00 | 0.00 | 95 | 1011.3 |
| 20260905125548 | 73 | 164 | 1.0 | 6.0 | 0.00 | 0.00 | 0.00 | 95 | 1011.3 |
| 20260905125048 | 73 | 164 | 1.0 | 6.0 | 0.00 | 0.00 | 0.00 | 95 | 1011.2 |
| 20260905124552 | 73 | 167 | 2.0 | 5.0 | 0.00 | 0.00 | 0.00 | 95 | 1011.1 |
| 20260905124047 | 73 | 141 | 1.0 | 4.0 | 0.00 | 0.00 | 0.00 | 95 | 1011.0 |
| 20260905123547 | 73 | 170 | 2.0 | 6.0 | 0.00 | 0.00 | 0.00 | 95 | 1011.1 |
| 20260905123047 | 73 | 145 | 3.0 | 8.0 | 0.00 | 0.00 | 0.00 | 95 | 1011.1 |
| 20260905122549 | 73 | 167 | 4.0 | 8.0 | 0.00 | 0.00 | 0.00 | 95 | 1011.0 |
| 20260905122046 | 73 | 178 | 3.0 | 7.0 | 0.00 | 0.00 | 0.00 | 95 | 1011.0 |
| 20260905121546 | 73 | 154 | 2.0 | 7.0 | 0.00 | 0.00 | 0.00 | 95 | 1010.9 |
| 20260905121046 | 73 | 159 | 2.0 | 8.0 | 0.00 | 0.00 | 0.00 | 95 | 1010.9 |
| 20260905120545 | 73 | 148 | 4.0 | 8.0 | 0.00 | 0.00 | 0.00 | 95 | 1010.9 |
| 20260905120048 | 73 | 182 | 2.0 | 5.0 | 0.00 | 0.00 | 0.00 | 94 | 1010.8 |
| 20260905115544 | 73 | 144 | 2.0 | 7.0 | 0.00 | 0.00 | 0.00 | 94 | 1010.9 |
| 20260905115044 | 73 | 126 | 2.0 | 7.0 | 0.00 | 0.00 | 0.00 | 94 | 1010.8 |
| 20260905114545 | 73 | 134 | 3.0 | 7.0 | 0.00 | 0.00 | 0.00 | 94 | 1010.7 |
| 20260905114145 | 73 | 136 | 3.0 | 7.0 | 0.00 | 0.00 | 0.00 | 94 | 1010.7 |